Time,TemperatureF,DewpointF,PressureIn,WindDirection,WindDirectionDegrees,WindSpeedMPH,WindSpeedGustMPH,Humidity,HourlyPrecipIn,Conditions,Clouds,dailyrainin,SoftwareType,DateUTC
2013-03-05 00:08:00,16.6,15.0,30.21,NNE,24,0.0,-999.0,92,-99.99,,,0.00,weatherlink.com 1.10,2013-03-05 05:08:00,
2013-03-05 00:24:00,16.4,15.0,30.21,NNE,24,0.0,-999.0,92,-99.99,,,0.00,weatherlink.com 1.10,2013-03-05 05:24:00,
2013-03-05 00:38:00,14.7,13.0,30.21,NNE,24,0.0,-999.0,91,-99.99,,,0.00,weatherlink.com 1.10,2013-03-05 05:38:00,
2013-03-05 00:53:00,15.1,13.0,30.22,NNE,24,0.0,-999.0,92,-99.99,,,0.00,weatherlink.com 1.10,2013-03-05 05:53:00,
2013-03-05 01:08:00,14.7,13.0,30.22,NNE,24,0.0,-999.0,92,-99.99,,,0.00,weatherlink.com 1.10,2013-03-05 06:08:00,
2013-03-05 01:23:00,15.5,14.0,30.22,NNE,24,0.0,-999.0,93,-99.99,,,0.00,weatherlink.com 1.10,2013-03-05 06:23:00,
2013-03-05 01:38:00,14.6,13.0,30.23,NNE,24,0.0,-999.0,92,-99.99,,,0.00,weatherlink.com 1.10,2013-03-05 06:38:00,
2013-03-05 01:54:00,11.9,10.0,30.23,NNE,24,0.0,-999.0,91,-99.99,,,0.00,weatherlink.com 1.10,2013-03-05 06:54:00,
2013-03-05 02:09:00,11.7,10.0,30.23,NNE,24,0.0,-999.0,91,-99.99,,,0.00,weatherlink.com 1.10,2013-03-05 07:09:00,
2013-03-05 02:24:00,13.5,12.0,30.23,NNE,24,0.0,-999.0,93,-99.99,,,0.00,weatherlink.com 1.10,2013-03-05 07:24:00,
2013-03-05 02:39:00,14.1,13.0,30.23,NNE,24,0.0,-999.0,93,-99.99,,,0.00,weatherlink.com 1.10,2013-03-05 07:39:00,
2013-03-05 02:54:00,14.1,13.0,30.23,NNE,24,0.0,-999.0,93,-99.99,,,0.00,weatherlink.com 1.10,2013-03-05 07:54:00,
2013-03-05 03:09:00,14.0,12.0,30.22,NNE,24,0.0,-999.0,92,-99.99,,,0.00,weatherlink.com 1.10,2013-03-05 08:09:00,
2013-03-05 03:24:00,14.0,12.0,30.22,NE,34,0.0,-999.0,92,-99.99,,,0.00,weatherlink.com 1.10,2013-03-05 08:24:00,
2013-03-05 03:39:00,13.6,12.0,30.21,NE,34,0.0,-999.0,91,-99.99,,,0.00,weatherlink.com 1.10,2013-03-05 08:39:00,
2013-03-05 03:54:00,14.0,12.0,30.21,NE,42,0.0,-999.0,90,-99.99,,,0.00,weatherlink.com 1.10,2013-03-05 08:54:00,
2013-03-05 04:09:00,14.5,12.0,30.21,NE,53,0.0,-999.0,88,-99.99,,,0.00,weatherlink.com 1.10,2013-03-05 09:09:00,
2013-03-05 04:24:00,14.5,11.0,30.21,NE,55,0.0,-999.0,85,-99.99,,,0.00,weatherlink.com 1.10,2013-03-05 09:24:00,
2013-03-05 04:39:00,14.1,10.0,30.21,NE,55,0.0,-999.0,84,-99.99,,,0.00,weatherlink.com 1.10,2013-03-05 09:39:00,
2013-03-05 04:54:00,14.2,10.0,30.22,NE,54,0.0,-999.0,84,-99.99,,,0.00,weatherlink.com 1.10,2013-03-05 09:54:00,
2013-03-05 05:10:00,13.7,10.0,30.22,NE,36,0.0,-999.0,84,-99.99,,,0.00,weatherlink.com 1.10,2013-03-05 10:10:00,
2013-03-05 05:25:00,13.3,10.0,30.21,NE,34,0.0,-999.0,85,-99.99,,,0.00,weatherlink.com 1.10,2013-03-05 10:25:00,
2013-03-05 05:40:00,11.8,8.0,30.22,NE,34,0.0,-999.0,85,-99.99,,,0.00,weatherlink.com 1.10,2013-03-05 10:40:00,
2013-03-05 05:55:00,12.8,10.0,30.22,NE,34,0.0,-999.0,87,-99.99,,,0.00,weatherlink.com 1.10,2013-03-05 10:55:00,
2013-03-05 06:10:00,13.0,9.0,30.21,NE,34,0.0,-999.0,85,-99.99,,,0.00,weatherlink.com 1.10,2013-03-05 11:10:00,
2013-03-05 06:25:00,13.5,10.0,30.21,NE,34,0.0,-999.0,84,-99.99,,,0.00,weatherlink.com 1.10,2013-03-05 11:25:00,
2013-03-05 06:40:00,13.2,9.0,30.21,NE,34,0.0,-999.0,82,-99.99,,,0.00,weatherlink.com 1.10,2013-03-05 11:40:00,
2013-03-05 06:55:00,13.3,9.0,30.21,NE,34,0.0,-999.0,82,-99.99,,,0.00,weatherlink.com 1.10,2013-03-05 11:55:00,
2013-03-05 07:10:00,12.3,8.0,30.21,NE,34,0.0,-999.0,83,-99.99,,,0.00,weatherlink.com 1.10,2013-03-05 12:10:00,
2013-03-05 07:25:00,11.8,8.0,30.21,NE,34,0.0,-999.0,84,-99.99,,,0.00,weatherlink.com 1.10,2013-03-05 12:25:00,
2013-03-05 07:40:00,12.3,9.0,30.21,NE,34,0.0,-999.0,86,-99.99,,,0.00,weatherlink.com 1.10,2013-03-05 12:40:00,
2013-03-05 07:55:00,13.6,10.0,30.21,NE,43,0.0,-999.0,85,-99.99,,,0.00,weatherlink.com 1.10,2013-03-05 12:55:00,
2013-03-05 08:10:00,14.7,10.0,30.21,NE,53,0.0,-999.0,82,-99.99,,,0.00,weatherlink.com 1.10,2013-03-05 13:10:00,
2013-03-05 08:26:00,15.8,11.0,30.20,NE,53,0.0,-999.0,80,-99.99,,,0.00,weatherlink.com 1.10,2013-03-05 13:26:00,
2013-03-05 08:41:00,17.1,11.0,30.20,NE,53,0.0,-999.0,76,-99.99,,,0.00,weatherlink.com 1.10,2013-03-05 13:41:00,
2013-03-05 08:56:00,17.8,11.0,30.20,ENE,68,2.0,-999.0,74,-99.99,,,0.00,weatherlink.com 1.10,2013-03-05 13:56:00,
2013-03-05 09:11:00,18.2,12.0,30.20,ENE,71,0.0,-999.0,75,-99.99,,,0.00,weatherlink.com 1.10,2013-03-05 14:11:00,
2013-03-05 09:26:00,20.3,14.0,30.19,ENE,70,4.0,-999.0,76,-99.99,,,0.00,weatherlink.com 1.10,2013-03-05 14:26:00,
2013-03-05 09:41:00,21.7,15.0,30.19,ENE,67,4.0,-999.0,76,-99.99,,,0.00,weatherlink.com 1.10,2013-03-05 14:41:00,
2013-03-05 09:56:00,22.5,17.0,30.19,ENE,73,5.0,-999.0,78,-99.99,,,0.00,weatherlink.com 1.10,2013-03-05 14:56:00,
2013-03-05 10:11:00,23.1,17.0,30.18,ENE,57,3.0,-999.0,78,-99.99,,,0.00,weatherlink.com 1.10,2013-03-05 15:11:00,
2013-03-05 10:26:00,23.8,18.0,30.18,NNE,21,5.0,-999.0,78,-99.99,,,0.00,weatherlink.com 1.10,2013-03-05 15:26:00,
2013-03-05 10:42:00,24.4,18.0,30.18,ENE,63,4.0,-999.0,77,-99.99,,,0.00,weatherlink.com 1.10,2013-03-05 15:42:00,
2013-03-05 10:57:00,25.1,18.0,30.17,NE,51,6.0,-999.0,75,-99.99,,,0.00,weatherlink.com 1.10,2013-03-05 15:57:00,
2013-03-05 11:12:00,25.9,19.0,30.17,East,83,5.0,-999.0,74,-99.99,,,0.00,weatherlink.com 1.10,2013-03-05 16:12:00,
2013-03-05 11:27:00,26.3,19.0,30.17,North,10,2.0,-999.0,73,-99.99,,,0.00,weatherlink.com 1.10,2013-03-05 16:27:00,
2013-03-05 11:42:00,28.4,20.0,30.17,NNW,342,0.0,-999.0,70,-99.99,,,0.00,weatherlink.com 1.10,2013-03-05 16:42:00,
2013-03-05 11:57:00,28.9,19.0,30.16,NE,34,3.0,-999.0,66,-99.99,,,0.00,weatherlink.com 1.10,2013-03-05 16:57:00,
2013-03-05 12:12:00,29.6,20.0,30.16,NW,316,3.0,-999.0,67,-99.99,,,0.00,weatherlink.com 1.10,2013-03-05 17:12:00,
2013-03-05 12:27:00,30.5,20.0,30.16,NNE,32,4.0,-999.0,66,-99.99,,,0.00,weatherlink.com 1.10,2013-03-05 17:27:00,
2013-03-05 12:42:00,30.9,20.0,30.16,NNW,334,2.0,-999.0,63,-99.99,,,0.00,weatherlink.com 1.10,2013-03-05 17:42:00,
2013-03-05 12:58:00,30.9,20.0,30.16,NE,40,7.0,-999.0,65,-99.99,,,0.00,weatherlink.com 1.10,2013-03-05 17:58:00,
2013-03-05 13:13:00,30.8,21.0,30.16,North,355,6.0,-999.0,67,-99.99,,,0.00,weatherlink.com 1.10,2013-03-05 18:13:00,
2013-03-05 13:28:00,30.5,21.0,30.15,North,360,8.0,-999.0,68,-99.99,,,0.00,weatherlink.com 1.10,2013-03-05 18:28:00,
2013-03-05 13:43:00,30.2,22.0,30.15,North,350,6.0,-999.0,71,-99.99,,,0.00,weatherlink.com 1.10,2013-03-05 18:43:00,
2013-03-05 13:58:00,29.4,21.0,30.15,North,355,10.0,-999.0,72,-99.99,,,0.00,weatherlink.com 1.10,2013-03-05 18:58:00,
2013-03-05 14:28:00,28.5,22.0,30.15,North,5,5.0,-999.0,76,-99.99,,,0.00,weatherlink.com 1.10,2013-03-05 19:28:00,
2013-03-05 14:43:00,27.7,21.0,30.15,North,355,12.0,-999.0,77,-99.99,,,0.00,weatherlink.com 1.10,2013-03-05 19:43:00,
2013-03-05 14:58:00,26.7,21.0,30.15,NE,43,10.0,-999.0,79,-99.99,,,0.00,weatherlink.com 1.10,2013-03-05 19:58:00,
2013-03-05 15:13:00,26.7,22.0,30.15,NNW,342,16.0,-999.0,81,-99.99,,,0.00,weatherlink.com 1.10,2013-03-05 20:13:00,
2013-03-05 15:28:00,26.3,22.0,30.15,North,355,13.0,-999.0,83,-99.99,,,0.00,weatherlink.com 1.10,2013-03-05 20:28:00,
2013-03-05 15:43:00,25.6,22.0,30.15,North,10,6.0,-999.0,85,-99.99,,,0.00,weatherlink.com 1.10,2013-03-05 20:43:00,
2013-03-05 15:59:00,24.9,21.0,30.15,NNE,24,6.0,-999.0,85,-99.99,,,0.00,weatherlink.com 1.10,2013-03-05 20:59:00,
2013-03-05 16:14:00,24.9,21.0,30.15,North,360,11.0,-999.0,86,-99.99,,,0.00,weatherlink.com 1.10,2013-03-05 21:14:00,
2013-03-05 16:29:00,24.7,21.0,30.15,NNE,24,14.0,-999.0,86,-99.99,,,0.00,weatherlink.com 1.10,2013-03-05 21:29:00,
2013-03-05 16:44:00,24.5,21.0,30.15,NNW,348,10.0,-999.0,87,-99.99,,,0.00,weatherlink.com 1.10,2013-03-05 21:44:00,
2013-03-05 16:59:00,24.4,21.0,30.14,North,360,7.0,-999.0,88,-99.99,,,0.00,weatherlink.com 1.10,2013-03-05 21:59:00,
2013-03-05 17:14:00,24.4,21.0,30.15,NNW,342,6.0,-999.0,88,-99.99,,,0.00,weatherlink.com 1.10,2013-03-05 22:14:00,
2013-03-05 17:29:00,24.5,22.0,30.15,NE,44,8.0,-999.0,88,-99.99,,,0.00,weatherlink.com 1.10,2013-03-05 22:29:00,
2013-03-05 17:44:00,24.7,22.0,30.15,North,11,7.0,-999.0,88,-99.99,,,0.00,weatherlink.com 1.10,2013-03-05 22:44:00,
2013-03-05 17:59:00,24.9,22.0,30.16,NE,36,7.0,-999.0,87,-99.99,,,0.00,weatherlink.com 1.10,2013-03-05 22:59:00,
2013-03-05 18:14:00,25.0,22.0,30.16,North,5,4.0,-999.0,87,-99.99,,,0.00,weatherlink.com 1.10,2013-03-05 23:14:00,
2013-03-05 18:29:00,25.2,22.0,30.17,North,360,8.0,-999.0,87,-99.99,,,0.00,weatherlink.com 1.10,2013-03-05 23:29:00,
2013-03-05 18:44:00,25.2,22.0,30.17,North,355,5.0,-999.0,86,-99.99,,,0.00,weatherlink.com 1.10,2013-03-05 23:44:00,
2013-03-05 18:59:00,25.3,22.0,30.17,North,5,5.0,-999.0,86,-99.99,,,0.00,weatherlink.com 1.10,2013-03-05 23:59:00,
2013-03-05 19:15:00,25.4,22.0,30.17,North,355,7.0,-999.0,86,-99.99,,,0.00,weatherlink.com 1.10,2013-03-06 00:15:00,
2013-03-05 19:30:00,25.5,22.0,30.17,North,10,6.0,-999.0,86,-99.99,,,0.00,weatherlink.com 1.10,2013-03-06 00:30:00,
2013-03-05 19:45:00,25.7,22.0,30.18,NE,42,6.0,-999.0,86,-99.99,,,0.00,weatherlink.com 1.10,2013-03-06 00:45:00,
2013-03-05 20:00:00,25.7,22.0,30.17,North,9,3.0,-999.0,86,-99.99,,,0.00,weatherlink.com 1.10,2013-03-06 01:00:00,
2013-03-05 20:15:00,25.9,22.0,30.17,North,355,6.0,-999.0,85,-99.99,,,0.00,weatherlink.com 1.10,2013-03-06 01:15:00,
2013-03-05 20:30:00,26.1,22.0,30.17,North,360,4.0,-999.0,85,-99.99,,,0.00,weatherlink.com 1.10,2013-03-06 01:30:00,
2013-03-05 20:45:00,26.3,22.0,30.17,North,355,6.0,-999.0,84,-99.99,,,0.00,weatherlink.com 1.10,2013-03-06 01:45:00,
2013-03-05 21:00:00,26.6,22.0,30.18,North,355,5.0,-999.0,84,-99.99,,,0.00,weatherlink.com 1.10,2013-03-06 02:00:00,
2013-03-05 21:15:00,27.0,23.0,30.18,North,355,5.0,-999.0,84,-99.99,,,0.00,weatherlink.com 1.10,2013-03-06 02:15:00,
2013-03-05 21:30:00,27.3,23.0,30.18,North,355,5.0,-999.0,85,-99.99,,,0.00,weatherlink.com 1.10,2013-03-06 02:30:00,
2013-03-05 21:45:00,27.4,24.0,30.18,NNW,346,8.0,-999.0,85,-99.99,,,0.00,weatherlink.com 1.10,2013-03-06 02:45:00,
2013-03-05 22:00:00,27.6,24.0,30.18,NNW,341,7.0,-999.0,86,-99.99,,,0.00,weatherlink.com 1.10,2013-03-06 03:00:00,
2013-03-05 22:15:00,27.9,24.0,30.18,NNW,346,4.0,-999.0,86,-99.99,,,0.00,weatherlink.com 1.10,2013-03-06 03:15:00,
2013-03-05 22:30:00,28.2,25.0,30.18,NNW,344,7.0,-999.0,87,-99.99,,,0.00,weatherlink.com 1.10,2013-03-06 03:30:00,
2013-03-05 22:46:00,28.5,25.0,30.18,NNW,346,3.0,-999.0,88,-99.99,,,0.00,weatherlink.com 1.10,2013-03-06 03:46:00,
2013-03-05 23:01:00,28.8,26.0,30.18,North,355,4.0,-999.0,89,-99.99,,,0.00,weatherlink.com 1.10,2013-03-06 04:01:00,
2013-03-05 23:16:00,28.9,26.0,30.18,North,355,6.0,-999.0,90,-99.99,,,0.00,weatherlink.com 1.10,2013-03-06 04:16:00,
2013-03-05 23:31:00,29.1,27.0,30.18,North,9,2.0,-999.0,90,-99.99,,,0.00,weatherlink.com 1.10,2013-03-06 04:31:00,
2013-03-05 23:46:00,29.2,27.0,30.18,NNE,26,5.0,-999.0,91,-99.99,,,0.00,weatherlink.com 1.10,2013-03-06 04:46:00,